Zurück zum Katalog

STARLINK-34784

AktivKommunikationVLEO
NORAD 65458·PAYLOAD·🇺🇸 United States

Gestartet Sep 3, 2025 von Cape Canaveral Space Force Station

Loading…

Nächste Überflüge (nächste 24 Stunden)

TLE

AktuellSource: CelesTrak SupGP

Epoche: Sep 14, 2026, 21:10 UTC

1 65458C 25195A   26257.88243056 -.00014254  00000+0 -45846-3 0  2572
2 65458  53.1582  97.7586 0001404  81.4523 261.9109 15.31703270    16

Verfolge STARLINK-34784 in Echtzeit mit AllMySat

Download on the App Store